Flag for U.S.A. Weather past 2 weeks in Concord, California, U.S.A.

Now
61 °F

Clear.


Feels Like: 61 °F
Forecast: 61 / 82 °F
Wind: 10 mph from West

Location: Buchanan Field

Current Time: Aug 22, 2014 at 6:00:20 AM

Latest Report: Aug 22, 2014 at 4:53 AM


Visibility: 10 mi

Pressure: 29.85 "Hg

Humidity: 87%

Dew point: 57 °F

Location of ConcordLocation

Historic Weather in Concord — Graph

°F

Concord temperature yesterday

Maximum temperature yesterday: 87 °F (at 3:53 PM)
Minimum temperature yesterday: 60 °F (at 12:53 AM)
Average temperature yesterday: 71 °F

Past Weeks' High & Low Weather Summary

 TemperatureHumidityPressure
High91 °F (Aug 8, 3:53 PM)93% (Aug 14, 5:53 AM)29.99 "Hg (Aug 14, 5:53 AM)
Low56 °F (Aug 17, 3:53 AM)9% (Aug 16, 6:53 PM)29.73 "Hg (Aug 18, 5:53 PM)
Average68 °F64%29.87 "Hg
* Reported Aug 7 4:53 AM — Aug 22 4:53 AM, Concord, Weather by CustomWeather, © 2014

Note: Actual official high and low records may vary slightly from our data, if they occured in-between our weather recording intervals... More about our weather records

Advertising

Concord weather history for previous 24 hours

 ConditionsComfort  
Time TempWeatherWind HumidityBarometerVisibility
4:53 AM
Aug 22
61 °FClear.10 mph87%29.85 "Hg10 mi
3:53 AM62 °FClear.5 mph80%29.85 "Hg10 mi
2:53 AM64 °FClear.13 mph78%29.86 "Hg10 mi
1:53 AM64 °FClear.3 mph73%29.86 "Hg10 mi
12:53 AM67 °FClear.13 mph66%29.86 "Hg10 mi
11:53 PM
Aug 21
67 °FClear.9 mph66%29.86 "Hg10 mi
10:53 PM68 °FClear.5 mph63%29.85 "Hg10 mi
9:53 PM69 °FClear.6 mph63%29.86 "Hg10 mi
8:53 PM72 °FClear.7 mph57%29.85 "Hg10 mi
7:53 PM74 °FSunny.6 mph48%29.85 "Hg10 mi
6:53 PM80 °FSunny.8 mph39%29.83 "Hg10 mi
5:53 PM83 °FSunny.13 mph38%29.84 "Hg10 mi
4:53 PM86 °FSunny.12 mph35%29.84 "Hg10 mi
4:04 PM86 °FSunny.16 mph35%29.89 "Hg10 mi
3:53 PM87 °FSunny.15 mph33%29.84 "Hg10 mi
2:53 PM83 °FSunny.16 mph43%29.86 "Hg10 mi
1:53 PM81 °FSunny.13 mph45%29.88 "Hg10 mi
12:53 PM78 °FSunny.7 mph50%29.89 "Hg10 mi
11:53 AM75 °FSunny.No wind54%29.91 "Hg10 mi
10:53 AM73 °FSunny.8 mph59%29.91 "Hg10 mi
9:53 AM68 °FSunny.5 mph68%29.92 "Hg10 mi
8:53 AM63 °FPassing clouds.5 mph81%29.91 "Hg10 mi
7:53 AM61 °FOvercast.6 mph87%29.90 "Hg10 mi
6:53 AM61 °FOvercast.5 mph87%29.89 "Hg10 mi
6:04 AM61 °FOvercast.7 mph83%29.92 "Hg10 mi
Weather by CustomWeather, © 2014

See weather overviewHow to use our weather pages